When you browse on this site, cookies collect data to enhance your experience and personalize the content and advertising you see.
Visit our Privacy Policy to learn more. By continuing to use the site, you agree to this use of cookies and data.
  • In Hungary
  • List of Countries
  • For 7 days
  • Water Temperature
  • Satellite Maps
  • Weather Map
  • News
  • Weather Widgets
  • user-avatar
    Login

    Hourly Weather Sant Cugat del Valles

    Today, 18 January, Friday

    Time Temperature Precipitation Wind Pressure Humidity
    00:00 +10°C° 0 mm 1 mps 753 mmHg 87%
    01:00 +10°C° 0.8 mm 1 mps 753 mmHg 86%
    02:00 +10°C° 0.8 mm 1 mps 753 mmHg 85%
    03:00 +9°C° 0.8 mm 2 mps 753 mmHg 84%
    04:00 +9°C° 0.4 mm 2 mps 753 mmHg 82%
    05:00 +9°C° 0.4 mm 1 mps 753 mmHg 80%
    06:00 +8°C° 0 mm 1 mps 753 mmHg 72%
    07:00 +8°C° 0 mm 1 mps 753 mmHg 70%
    08:00 +9°C° 0 mm 1 mps 753 mmHg 69%
    09:00 +9°C° 0 mm 1 mps 753 mmHg 68%
    10:00 +10°C° 0 mm 1 mps 752 mmHg 67%
    11:00 +10°C° 0 mm 1 mps 752 mmHg 67%
    12:00 +10°C° 0 mm 2 mps 752 mmHg 67%
    13:00 +10°C° 0 mm 2 mps 752 mmHg 65%
    14:00 +10°C° 0 mm 2 mps 752 mmHg 64%
    15:00 +10°C° 0 mm 3 mps 751 mmHg 62%
    16:00 +10°C° 0 mm 2 mps 751 mmHg 62%
    17:00 +10°C° 0 mm 2 mps 751 mmHg 62%
    18:00 +10°C° 0 mm 1 mps 751 mmHg 62%
    19:00 +9°C° 0 mm 2 mps 751 mmHg 63%
    20:00 +9°C° 0 mm 2 mps 751 mmHg 64%
    21:00 +8°C° 0 mm 2 mps 751 mmHg 66%
    22:00 +8°C° 0 mm 2 mps 751 mmHg 67%
    23:00 +9°C° 0 mm 1 mps 751 mmHg 68%

    Tomorrow, 19 January, Saturday

    Time Temperature Precipitation Wind Pressure Humidity
    00:00 +8°C° 0 mm 1 mps 751 mmHg 69%
    01:00 +8°C° 0 mm 1 mps 751 mmHg 69%
    02:00 +7°C° 0 mm 2 mps 751 mmHg 69%
    03:00 +7°C° 0 mm 2 mps 751 mmHg 70%
    04:00 +7°C° 0 mm 2 mps 750 mmHg 70%
    05:00 +6°C° 0 mm 2 mps 750 mmHg 71%
    06:00 +6°C° 0 mm 2 mps 750 mmHg 72%
    07:00 +6°C° 0 mm 2 mps 751 mmHg 69%
    08:00 +8°C° 0 mm 1 mps 751 mmHg 66%
    09:00 +8°C° 0 mm 1 mps 751 mmHg 64%
    10:00 +9°C° 0 mm 1 mps 751 mmHg 60%
    11:00 +10°C° 0 mm 1 mps 750 mmHg 57%
    12:00 +11°C° 0 mm 1 mps 750 mmHg 54%
    13:00 +11°C° 0 mm 1 mps 750 mmHg 53%
    14:00 +12°C° 0 mm 1 mps 749 mmHg 52%
    15:00 +12°C° 0 mm 2 mps 749 mmHg 51%
    16:00 +10°C° 0 mm 2 mps 749 mmHg 55%
    17:00 +10°C° 0 mm 2 mps 749 mmHg 59%
    18:00 +9°C° 0 mm 2 mps 749 mmHg 63%
    19:00 +9°C° 0 mm 2 mps 748 mmHg 64%
    20:00 +10°C° 0 mm 1 mps 748 mmHg 65%
    21:00 +10°C° 0 mm 1 mps 748 mmHg 66%
    22:00 +10°C° 0.1 mm 1 mps 748 mmHg 68%
    23:00 +10°C° 0.1 mm 1 mps 747 mmHg 70%

    Day after tomorrow, 20 January, Sunday

    Time Temperature Precipitation Wind Pressure Humidity
    00:00 +9°C° 0.1 mm 1 mps 747 mmHg 72%
    01:00 +9°C° 0.1 mm 1 mps 747 mmHg 74%
    02:00 +9°C° 0.1 mm 1 mps 746 mmHg 75%
    03:00 +9°C° 0.1 mm 1 mps 746 mmHg 77%
    04:00 +8°C° 0.3 mm 2 mps 746 mmHg 78%
    05:00 +8°C° 0.3 mm 2 mps 746 mmHg 79%
    06:00 +8°C° 0.3 mm 3 mps 746 mmHg 80%
    07:00 +8°C° 0.3 mm 3 mps 746 mmHg 79%
    08:00 +9°C° 0.3 mm 3 mps 747 mmHg 78%
    09:00 +8°C° 0.3 mm 4 mps 747 mmHg 77%
    10:00 +8°C° 0.5 mm 4 mps 747 mmHg 74%
    11:00 +8°C° 0.5 mm 4 mps 747 mmHg 71%
    12:00 +8°C° 0.5 mm 4 mps 747 mmHg 68%
    13:00 +10°C° 0 mm 4 mps 747 mmHg 63%
    14:00 +11°C° 0 mm 4 mps 747 mmHg 59%
    15:00 +11°C° 0 mm 4 mps 747 mmHg 54%
    16:00 +11°C° 0 mm 4 mps 748 mmHg 57%
    17:00 +10°C° 0 mm 4 mps 748 mmHg 61%
    18:00 +8°C° 0 mm 4 mps 749 mmHg 64%
    19:00 +8°C° 0 mm 4 mps 749 mmHg 65%
    20:00 +8°C° 0 mm 3 mps 750 mmHg 67%
    21:00 +8°C° 0 mm 3 mps 750 mmHg 68%
    22:00 +8°C° 0 mm 2 mps 751 mmHg 68%
    23:00 +7°C° 0 mm 2 mps 751 mmHg 68%

    21 January, Monday

    Time Temperature Precipitation Wind Pressure Humidity
    00:00 +7°C° 0 mm 2 mps 751 mmHg 68%
    01:00 +8°C° 0 mm 1 mps 751 mmHg 69%
    02:00 +8°C° 0 mm 1 mps 751 mmHg 70%
    03:00 +8°C° 0 mm 1 mps 751 mmHg 71%
    04:00 +8°C° 0 mm 1 mps 751 mmHg 71%
    05:00 +7°C° 0 mm 1 mps 752 mmHg 71%
    06:00 +7°C° 0 mm 1 mps 752 mmHg 72%
    07:00 +8°C° 0 mm 1 mps 752 mmHg 69%
    08:00 +8°C° 0 mm 1 mps 753 mmHg 67%
    09:00 +9°C° 0 mm 1 mps 753 mmHg 65%
    10:00 +10°C° 0.1 mm 1 mps 753 mmHg 62%
    11:00 +11°C° 0.1 mm 1 mps 753 mmHg 60%
    12:00 +12°C° 0.1 mm 1 mps 754 mmHg 57%
    13:00 +12°C° 0.2 mm 1 mps 753 mmHg 57%
    14:00 +12°C° 0.2 mm 2 mps 753 mmHg 57%
    15:00 +12°C° 0.2 mm 2 mps 753 mmHg 57%
    16:00 +12°C° 0.7 mm 2 mps 754 mmHg 62%
    17:00 +10°C° 0.7 mm 2 mps 754 mmHg 67%
    18:00 +9°C° 0.7 mm 2 mps 754 mmHg 72%
    19:00 +9°C° 0.3 mm 2 mps 755 mmHg 72%
    20:00 +9°C° 0.3 mm 1 mps 755 mmHg 72%
    21:00 +9°C° 0.3 mm 1 mps 756 mmHg 73%
    22:00 +9°C° 0.1 mm 1 mps 756 mmHg 70%
    23:00 +8°C° 0.1 mm 1 mps 756 mmHg 68%

    22 January, Tuesday

    Time Temperature Precipitation Wind Pressure Humidity
    00:00 +8°C° 0.1 mm 1 mps 756 mmHg 66%
    01:00 +6°C° 0 mm 2 mps 756 mmHg 62%
    02:00 +6°C° 0 mm 2 mps 756 mmHg 58%
    03:00 +6°C° 0 mm 2 mps 755 mmHg 54%
    04:00 +5°C° 0 mm 2 mps 755 mmHg 52%
    05:00 +5°C° 0 mm 2 mps 755 mmHg 51%
    06:00 +4°C° 0 mm 2 mps 755 mmHg 50%
    07:00 +5°C° 0 mm 2 mps 755 mmHg 49%
    08:00 +5°C° 0 mm 2 mps 755 mmHg 48%
    09:00 +5°C° 0 mm 2 mps 755 mmHg 47%
    10:00 +6°C° 0 mm 2 mps 754 mmHg 42%
    11:00 +8°C° 0 mm 2 mps 753 mmHg 37%
    12:00 +9°C° 0 mm 2 mps 753 mmHg 32%
    13:00 +9°C° 0 mm 2 mps 752 mmHg 31%
    14:00 +10°C° 0 mm 2 mps 751 mmHg 30%
    15:00 +10°C° 0 mm 2 mps 749 mmHg 29%
    16:00 +10°C° 0 mm 3 mps 749 mmHg 33%
    17:00 +9°C° 0 mm 3 mps 748 mmHg 37%
    18:00 +9°C° 0 mm 3 mps 748 mmHg 41%
    19:00 +7°C° 0 mm 4 mps 747 mmHg 46%
    20:00 +7°C° 0 mm 4 mps 747 mmHg 51%
    21:00 +7°C° 0 mm 5 mps 746 mmHg 56%
    22:00 +7°C° 0 mm 4 mps 746 mmHg 58%
    23:00 +6°C° 0 mm 4 mps 745 mmHg 61%

    23 January, Wednesday

    Time Temperature Precipitation Wind Pressure Humidity
    00:00 +6°C° 0 mm 4 mps 745 mmHg 63%
    01:00 +7°C° 0 mm 3 mps 745 mmHg 65%
    02:00 +6°C° 0 mm 2 mps 744 mmHg 66%
    03:00 +7°C° 0 mm 1 mps 744 mmHg 67%
    04:00 +6°C° 0 mm 2 mps 743 mmHg 68%
    05:00 +5°C° 0 mm 3 mps 743 mmHg 69%
    06:00 +5°C° 0 mm 3 mps 742 mmHg 69%
    07:00 +6°C° 0 mm 5 mps 741 mmHg 67%
    08:00 +6°C° 0 mm 7 mps 741 mmHg 65%
    09:00 +7°C° 0 mm 9 mps 740 mmHg 63%
    10:00 +9°C° 0 mm 11 mps 739 mmHg 56%
    11:00 +12°C° 0 mm 12 mps 738 mmHg 48%
    12:00 +14°C° 0 mm 14 mps 737 mmHg 40%
    13:00 +15°C° 0 mm 13 mps 736 mmHg 37%
    14:00 +15°C° 0 mm 12 mps 735 mmHg 34%
    15:00 +17°C° 0 mm 11 mps 735 mmHg 32%
    16:00 +16°C° 0 mm 10 mps 734 mmHg 36%
    17:00 +13°C° 0 mm 9 mps 734 mmHg 40%
    18:00 +12°C° 0 mm 7 mps 733 mmHg 44%
    19:00 +12°C° 0 mm 7 mps 733 mmHg 46%
    20:00 +11°C° 0 mm 6 mps 733 mmHg 49%
    21:00 +11°C° 0 mm 6 mps 733 mmHg 51%
    22:00 +10°C° 0.2 mm 5 mps 734 mmHg 56%
    23:00 +10°C° 0.2 mm 3 mps 734 mmHg 60%
    Show more